Location: Newark
(54.3386°S, 169.8415°W)
Time: 16:39:48
(UTC+00:00)

Transit 4A - All Passes

Search period start: 22 October 2019 00:00
Search period end: 01 November 2019 00:00
Orbit: 867 x 978 km, 66.8° (Epoch: 21 October)

Date Brightness Start Highest point End Pass type
(mag) Time Alt. Az. Time Alt. Az. Time Alt. Az.
22 Oct - 03:31:02 10° N 03:36:34 44° ENE 03:42:16 10° SE daylight
22 Oct - 05:17:00 10° WNW 05:22:51 56° SW 05:28:54 10° SE daylight
22 Oct - 07:05:19 10° WSW 07:10:28 28° SSW 07:15:46 10° SE visible
22 Oct - 08:53:28 10° SW 08:58:41 28° SSE 09:04:01 10° ESE visible
22 Oct - 10:40:17 10° SW 10:46:22 54° SE 10:52:35 10° ENE visible
22 Oct - 12:26:50 10° SW 12:32:49 50° WNW 12:38:54 10° NNE visible
22 Oct - 14:16:04 10° W 14:17:50 11° W 14:19:35 10° WNW visible
23 Oct - 01:58:01 10° NE 02:00:40 13° E 02:03:20 10° ESE daylight
23 Oct - 03:39:59 10° NNW 03:45:45 59° ENE 03:51:45 10° SE daylight
23 Oct - 05:26:38 10° WNW 05:32:23 46° SW 05:38:18 10° SE daylight
23 Oct - 07:15:09 10° WSW 07:20:12 27° S 07:25:24 10° SE visible
23 Oct - 09:03:00 10° SW 09:08:24 30° SSE 09:13:55 10° E visible
23 Oct - 10:49:39 10° SW 10:55:51 67° SE 11:02:11 10° NE visible
23 Oct - 12:36:20 10° SW 12:42:00 37° WNW 12:47:45 10° N visible
24 Oct - 02:05:37 10° NNE 02:09:36 19° ENE 02:13:40 10° ESE daylight
24 Oct - 03:49:08 10° NNW 03:55:02 78° NE 04:01:10 10° SE daylight
24 Oct - 05:36:22 10° W 05:41:58 39° SSW 05:47:43 10° SE daylight
24 Oct - 07:24:56 10° WSW 07:29:58 26° S 07:35:06 10° SE visible
24 Oct - 09:12:29 10° SW 09:18:05 34° SSE 09:23:48 10° E visible
24 Oct - 10:59:00 10° SW 11:05:17 83° SE 11:11:40 10° NE visible
24 Oct - 12:45:56 10° SW 12:51:07 28° WNW 12:56:22 10° NNW visible
25 Oct - 02:13:50 10° NNE 02:18:38 26° ENE 02:23:33 10° SE daylight
25 Oct - 03:58:26 10° NW 04:04:23 82° SW 04:10:34 10° SE daylight
25 Oct - 05:46:11 10° W 05:51:36 33° SSW 05:57:11 10° SE daylight
25 Oct - 07:34:40 10° SW 07:39:43 26° S 07:44:54 10° ESE visible
25 Oct - 09:21:55 10° SW 09:27:43 40° SSE 09:33:39 10° E visible
25 Oct - 11:08:23 10° SW 11:14:38 78° NW 11:21:00 10° NNE visible
25 Oct - 12:55:45 10° WSW 13:00:10 20° WNW 13:04:38 10° NNW visible
26 Oct - 02:22:25 10° N 02:27:43 36° ENE 02:33:11 10° SE daylight
26 Oct - 04:07:53 10° NW 04:13:48 65° SW 04:19:57 10° SE daylight
26 Oct - 05:56:01 10° WSW 06:01:17 30° SSW 06:06:42 10° SE daylight
26 Oct - 07:44:20 10° SW 07:49:29 27° S 07:54:45 10° ESE visible
26 Oct - 09:31:18 10° SW 09:37:18 47° SE 09:43:25 10° ENE visible
26 Oct - 11:17:47 10° SW 11:23:55 60° WNW 11:30:11 10° NNE visible
26 Oct - 13:05:56 10° WSW 13:09:08 14° WNW 13:12:22 10° NW visible
27 Oct - 00:51:25 10° ENE 00:51:59 10° E 00:52:33 10° E daylight
27 Oct - 02:31:13 10° NNW 02:36:53 49° ENE 02:42:43 10° SE daylight
27 Oct - 04:17:28 10° WNW 04:23:17 52° SW 04:29:20 10° SE daylight
27 Oct - 06:05:52 10° WSW 06:11:00 28° SSW 06:16:17 10° SE daylight
27 Oct - 07:53:54 10° SW 07:59:12 29° SSE 08:04:38 10° ESE visible
27 Oct - 09:40:40 10° SW 09:46:49 58° SE 09:53:06 10° ENE visible
27 Oct - 11:27:15 10° SW 11:33:09 45° WNW 11:39:10 10° N visible
28 Oct - 00:57:38 10° NE 01:00:53 15° ENE 01:04:12 10° ESE daylight
28 Oct - 02:40:15 10° NNW 02:46:06 65° NE 02:52:10 10° SE daylight
28 Oct - 04:27:09 10° WNW 04:32:50 43° SSW 04:38:43 10° SE daylight
28 Oct - 06:15:41 10° WSW 06:20:45 26° S 06:25:56 10° SE daylight
28 Oct - 08:03:26 10° SW 08:08:55 32° SSE 08:14:31 10° E visible
28 Oct - 09:50:02 10° SW 09:56:16 72° SE 10:02:39 10° NE visible
28 Oct - 11:36:47 10° SW 11:42:19 34° WNW 11:47:56 10° N visible
29 Oct - 01:05:31 10° NNE 01:09:52 22° ENE 01:14:18 10° ESE daylight
29 Oct - 02:49:28 10° NW 02:55:25 85° NE 03:01:35 10° SE daylight
29 Oct - 04:36:54 10° W 04:42:26 37° SSW 04:48:09 10° SE daylight
29 Oct - 06:25:28 10° SW 06:30:31 26° S 06:35:40 10° SE daylight
29 Oct - 08:12:53 10° SW 08:18:35 36° SSE 08:24:23 10° E visible
29 Oct - 09:59:23 10° SW 10:05:41 90° NW 10:12:05 10° NE visible
29 Oct - 11:46:27 10° WSW 11:51:25 25° WNW 11:56:25 10° NNW visible
30 Oct - 01:13:53 10° N 01:18:54 30° ENE 01:24:04 10° SE daylight
30 Oct - 02:58:50 10° NW 03:04:47 76° SW 03:10:58 10° SE daylight
30 Oct - 04:46:44 10° W 04:52:05 32° SSW 04:57:38 10° SE daylight
30 Oct - 06:35:09 10° SW 06:40:15 26° S 06:45:28 10° ESE daylight
30 Oct - 08:22:18 10° SW 08:28:12 42° SSE 08:34:13 10° ENE visible
30 Oct - 10:08:46 10° SW 10:15:01 71° NW 10:21:22 10° NNE visible
30 Oct - 11:56:22 10° WSW 12:00:26 18° WNW 12:04:31 10° NW visible
31 Oct - 01:22:33 10° N 01:28:01 40° ENE 01:33:39 10° SE daylight
31 Oct - 03:08:19 10° WNW 03:14:14 60° SW 03:20:21 10° SE daylight
31 Oct - 04:56:34 10° WSW 05:01:48 29° SSW 05:07:11 10° SE daylight
31 Oct - 06:44:47 10° SW 06:50:01 28° SSE 06:55:21 10° ESE daylight
31 Oct - 08:31:41 10° SW 08:37:46 51° SE 08:43:57 10° ENE visible
31 Oct - 10:18:12 10° SW 10:24:17 54° WNW 10:30:28 10° NNE visible
31 Oct - 12:06:50 10° WSW 12:09:22 13° W 12:11:56 10° NW visible
31 Oct - 23:50:05 10° ENE 23:52:12 12° E 23:54:19 10° E daylight
